Regional Weather Roundup
Issued by NWS

Home | Current Version | Previous Version | Graphics & Text | Print | Product List | Glossary On
Versions: 1 2 3 4 5 6 7 8 9 10 11 12 13 14 15 16 17 18 19 20 21 22 23 24 25 26 27 28 29 30 31 32 33 34 35 36 37 38 39 40 41 42 43 44 45 46 47 48 49 50
000
ASUS43 KIND 182309
RWRIN

WEATHER ROUNDUP FOR INDIANA
NATIONAL WEATHER SERVICE INDIANAPOLIS IN
600 PM EST SAT FEB 18 2017

NOTE: "FAIR" INDICATES FEW OR NO CLOUDS BELOW 12,000 FEET WITH NO
SIGNIFICANT WEATHER AND/OR OBSTRUCTIONS TO VISIBILITY.

* - STATION DOES NOT REPORT WEATHER SUCH AS PRECIPITATION OR FOG.

+ - STATION NOT QUALITY CONTROLLED BY THE NATIONAL WEATHER SERVICE.
    USE DATA WITH CAUTION...ESPECIALLY DEWPOINT AND RELATIVE
    HUMIDITY OBSERVATIONS.

INZ001>003-010>013-019-020-190000-
NORTHWEST INDIANA

CITY           SKY/WX    TMP DP  RH WIND       PRES   REMARKS
GARY /AIRPORT/ PTCLDY    68  30  24 W8        29.74R
KNOX *+        CLEAR     63  16  16 W7        29.75R
LA PORTE +     CLEAR     61  41  48 W6        29.75R
MICHIGAN CITY+ CLEAR     61  32  33 CALM      29.75R
MONTICELLO +   PTCLDY    61  42  48 SW6       29.76R
RENSSELAER +   CLEAR     63  41  45 SW7       29.75R
VALPARAISO     CLEAR     63  42  46 W7        29.75R

$$

LMZ046-743>745-190000-
SOUTHERN LAKE MICHIGAN

STATION/POSITION TIME  TEMP    WIND        PRES    WAVE
                       AIR SEA DIR/SP/G            HT
                 (UTC) (F)     (DEG/KT/KT) (MB)    (FT)
BURNS HARBOR     2240   53      80/  9/ 11 1007.8R
MICHIGAN CITY    2240   54      40/  8/  9   N/A

$$

INZ004-005-014>016-021>024-190000-
NORTH CENTRAL INDIANA

CITY           SKY/WX    TMP DP  RH WIND       PRES   REMARKS
ELKHART        CLEAR     63  37  39 NW6       29.74R
GOSHEN         CLEAR     59  40  49 W9        29.74R
LOGANSPORT +   CLEAR     55  43  62 W6        29.78R
PERU/GRISSOM   CLEAR     59  43  55 SW10      29.75R
ROCHESTER +    CLEAR     63  41  45 SW6       29.76R
SOUTH BEND     CLEAR     57  36  45 NW7       29.76R
WARSAW +       CLEAR     61  39  44 SW6       29.75R

$$

INZ006>009-017-018-025>027-190000-
NORTHEAST INDIANA

CITY           SKY/WX    TMP DP  RH WIND       PRES   REMARKS
ANGOLA *+      CLEAR     61  46  59 SW6       29.74R
AUBURN +       CLEAR     61  39  44 W6        29.75R
FORT WAYNE     PTCLDY    60  43  53 SW16      29.76R
HUNTINGTON +   CLEAR     59  41  51 W8        29.76S
KENDALLVILLE + CLEAR     60  41  48 W8        29.74R

$$

INZ028-029-035-036-043>045-051>053-190000-
WEST CENTRAL INDIANA

CITY           SKY/WX    TMP DP  RH WIND       PRES   REMARKS
GREENCASTLE +  PTCLDY    59  41  51 SW6       29.81R
LAFAYETTE      CLEAR     62  42  47 SW8       29.77R
TERRE HAUTE    PTCLDY    60  42  51 SW13      29.81R

$$

INZ030>032-037>040-046>048-054>057-064-065-190000-
CENTRAL INDIANA

CITY           SKY/WX    TMP DP  RH WIND       PRES   REMARKS
CP ATTERBURY + PTCLDY    59  41  51 S8        29.81R
COLUMBUS       CLOUDY    57  43  58 S12       29.81R
FRANKFORT +    PTCLDY    62  45  54 SW8       29.80R
GREENWOOD *+   CLOUDY    62  42  48 SW7       29.80S
INDIANAPOLIS   MOCLDY    60  41  49 SW9       29.79R
-EAGLE CREEK   PTCLDY    61  41  47 SW6       29.78R
KOKOMO +       CLEAR     60  44  55 SW10      29.78R
MARION +       CLEAR     58  43  57 W7        29.78R
MT COMFORT *+  CLOUDY    61  41  48 SW7       29.79S
SHELBYVILLE    CLOUDY    60  42  51 S10       29.79S
ZIONSVILLE +   CLEAR     59  41  52 W8        29.79S

$$

INZ033-034-041-042-049-050-058-059-190000-
EAST CENTRAL INDIANA

CITY           SKY/WX    TMP DP  RH WIND       PRES   REMARKS
MUNCIE         CLEAR     63  40  42 SW9       29.77R

$$

INZ060-061-067>069-081>083-085>088-190000-
SOUTHWEST INDIANA

CITY           SKY/WX    TMP DP  RH WIND       PRES   REMARKS
EVANSVILLE     CLOUDY    51  49  92 SW12      29.88S
HUNTINGBURG *+ LGT RAIN  50  49  96 SW9       29.88R
WASHINGTON +   CLOUDY    53  46  79 W13       29.86R

$$

INZ062-063-066-070>080-084-089>092-190000-
SOUTH CENTRAL AND SOUTHEAST INDIANA

CITY           SKY/WX    TMP DP  RH WIND       PRES   REMARKS
BEDFORD +      CLOUDY    54  43  66 SW9       29.84R
BLOOMINGTON    CLOUDY    57  42  57 SW12      29.82R
MADISON *+     CLOUDY    50  46  87 S10       29.87S
NORTH VERNON + CLOUDY    59  41  51 S9        29.83S
SEYMOUR +      CLOUDY    55  45  67 S16       29.83R

$$





USA.gov is the U.S. government's official web portal to all federal, state and local government web resources and services.